Flag for India Weather past 2 weeks in Thiruvananthapuram, Kerala, India

Now
88 °F

Thunderstorms. More clouds than sun.


Feels Like: 105 °F
Forecast: 82 / 89 °F
Wind: 6 mph from West

Location: Thiruvananthapuram


UV Index: 10 (Very high)

Visibility: 2 mi


Pressure: 29.71 "Hg

Humidity: 79%

Dew point: 81 °F

Location of ThiruvananthapuramLocation

Historic Weather in Thiruvananthapuram

°F

Thiruvananthapuram temperature yesterday

Maximum temperature yesterday: 93 °F (at 12:40 PM)
Minimum temperature yesterday: 81 °F (at 5:40 AM)
Average temperature yesterday: 85 °F

Past Weeks' High & Low Weather Summary

 TemperatureHumidityPressure
High93 °F (Apr 22, 1:40 PM)94% (Apr 15, 2:40 AM)29.92 "Hg (Apr 15, 2:40 AM)
Low75 °F (Apr 10, 7:40 PM)58% (Apr 11, 8:40 PM)29.68 "Hg (Apr 20, 3:40 PM)
Average85 °F76%29.80 "Hg
* Reported Apr 9 9:40 PM — Apr 24 5:40 PM, Thiruvananthapuram, Weather by CustomWeather, © 2014

Note: Actual official high and low records may vary slightly from our data, if they occured in-between our weather recording intervals... More about our weather records

Advertising

Historic Weather Conditions — Data for Previous 24 hours

 ConditionsComfort  
Time TempWeatherWind HumidityBarometerVisibility
5:40 PM
Apr 24
88 °FThunderstorms. More clouds than sun.6 mph79%29.71 "Hg2 mi
4:40 PM88 °FThundershowers. Broken clouds.7 mph79%29.68 "Hg2 mi
1:40 PM91 °FHaze.12 mph71%29.74 "Hg3 mi
12:40 PM91 °FHaze.5 mph71%29.77 "Hg3 mi
11:40 AM91 °FHaze.9 mph71%29.83 "Hg3 mi
9:40 AM88 °FHaze.3 mph75%29.86 "Hg2 mi
8:40 AM88 °FHaze.3 mph75%29.83 "Hg2 mi
7:40 AM84 °FHaze.No wind74%29.80 "Hg2 mi
5:40 AM81 °FHaze.No wind79%29.74 "Hg2 mi
4:40 AM79 °FPassing clouds.No wind89%29.77 "Hg2 mi
3:40 AM79 °FPassing clouds.No wind89%29.77 "Hg2 mi
2:40 AM81 °FPassing clouds.No wind84%29.77 "Hg2 mi
1:40 AM81 °FPassing clouds.3 mph84%29.80 "Hg2 mi
12:40 AM81 °FPassing clouds.No wind84%29.80 "Hg2 mi
11:40 PM
Apr 23
81 °FPassing clouds.No wind84%29.83 "Hg2 mi
10:40 PM82 °FPartly cloudy.No wind79%29.83 "Hg2 mi
9:40 PM82 °FPartly cloudy.No wind79%29.83 "Hg2 mi
8:40 PM82 °FPartly cloudy.No wind79%29.80 "Hg2 mi
7:40 PM82 °FMostly cloudy.No wind79%29.83 "Hg2 mi
Weather by CustomWeather, © 2014

See weather overview